Wind_Speed
37 39 39 41 44 42 45 52 61 59 56 56 55 55 54 49 48 46 44 41 40 36 39 39 46 35 34 29 24 23 20 24 25 27 25 26 29 35 35 37 38 37 38 38
36 32 38 39 38 37 42 44 52 56 56 57 54 55 54 51 47 46 43 42 38 39 39 38 34 30 33 30 26 25 23 25 26 28 28 30 32 34 35 40 39 39 39 39
35 30 33 32 29 31 32 37 45 49 46 51 52 54 53 51 48 46 44 42 42 39 37 36 33 32 34 28 25 28 29 32 30 31 32 32 34 36 41 40 39 39 38 39
28 25 23 20 19 21 21 22 28 36 32 39 49 49 50 50 46 44 43 41 39 38 36 34 33 34 26 24 30 31 34 36 35 33 34 35 37 39 39 40 40 39 41 43
22 18 13 11 9 10 8 20 25 27 32 27 33 45 32 46 43 42 41 39 37 36 32 31 31 32 30 33 36 38 36 36 35 35 37 37 38 39 40 41 41 43 45 44
19 15 12 10 5 3 16 25 22 26 25 36 32 35 33 37 37 36 35 34 35 34 34 34 36 36 36 36 36 37 35 34 35 37 38 38 39 40 41 43 45 45 44 42
17 13 11 9 5 9 18 24 20 28 18 27 30 28 30 32 31 30 31 30 31 32 31 32 33 34 34 34 34 35 33 34 35 37 39 39 40 42 43 45 45 44 44 48
24 12 12 9 6 10 14 20 19 7 16 17 23 25 15 18 24 25 26 27 28 29 29 30 31 32 31 32 32 32 32 33 37 38 39 41 42 44 45 44 43 47 50 54
20 14 9 8 3 6 13 19 17 7 15 13 16 12 14 17 19 22 24 25 27 27 27 26 27 29 29 29 29 30 33 35 36 38 40 41 44 44 43 45 48 52 57 62
24 20 8 4 3 4 11 15 10 14 14 9 8 11 15 15 20 21 23 25 25 25 25 26 26 26 26 27 30 32 34 35 37 39 41 43 43 43 46 50 55 60 65 68
28 25 16 5 3 3 4 4 4 6 10 11 11 13 16 17 19 20 21 22 23 24 24 24 24 25 26 29 32 34 35 36 38 41 42 42 45 48 53 58 63 67 70 73
27 23 24 9 4 3 3 3 2 4 5 7 10 10 17 18 19 20 20 22 22 22 23 23 25 28 30 31 32 33 35 38 40 40 42 46 50 55 60 65 69 71 72 73
24 25 17 20 2 2 3 6 6 4 2 3 8 10 13 20 22 21 20 20 20 20 22 23 25 28 29 30 32 35 37 38 38 42 46 51 56 61 66 69 71 71 73 76
19 19 18 13 14 12 8 7 6 7 6 3 4 8 11 16 20 18 16 17 19 21 23 25 26 27 28 31 34 35 36 38 42 47 52 57 62 66 68 70 71 74 77 80
16 14 13 14 8 9 12 9 4 9 8 7 7 11 10 11 13 15 16 17 19 21 21 23 25 27 30 32 33 35 38 43 48 54 58 62 65 66 67 71 74 77 80 79
14 12 10 5 5 7 7 6 4 3 2 4 7 7 7 10 12 13 14 16 18 20 22 24 27 29 30 30 33 38 44 49 54 58 61 63 64 67 71 74 77 79 75 72
12 10 8 5 2 2 3 3 0 1 2 4 5 6 7 9 11 13 15 17 19 21 24 26 27 27 29 33 39 45 50 54 58 59 61 63 67 70 73 77 75 71 66 63
9 8 6 5 3 1 1 1 4 4 4 5 6 8 10 11 13 15 17 19 21 23 24 25 25 28 34 40 45 50 53 56 58 60 63 67 70 73 75 70 65 61 58 54
9 7 6 5 5 6 5 6 6 6 7 8 9 10 11 13 14 15 17 19 21 22 22 24 28 34 41 45 49 52 55 57 60 63 67 70 73 71 64 60 56 54 50 43
9 8 7 7 8 10 8 8 9 9 9 8 9 9 10 11 12 15 17 19 19 20 23 28 35 40 44 47 51 54 56 60 63 67 70 72 66 59 54 52 51 45 41 35
12 10 10 10 11 13 12 10 11 11 11 11 11 10 11 12 14 16 17 18 19 22 28 34 38 42 46 49 52 56 60 64 67 71 72 62 54 49 48 47 43 40 34 26
13 13 12 13 14 15 12 12 11 12 12 13 14 14 14 15 17 18 18 19 22 27 32 36 40 44 47 51 55 59 64 69 73 71 60 51 46 44 42 39 39 34 25 22
16 15 14 16 18 15 15 16 13 13 13 14 16 19 20 21 21 21 20 22 26 30 34 39 43 46 50 54 59 64 70 74 70 58 49 44 41 39 37 35 34 25 22 24
19 17 15 19 21 19 17 17 17 16 16 17 19 22 24 24 24 22 23 25 28 33 37 41 45 49 53 59 64 71 75 69 56 48 43 39 37 35 33 31 27 22 23 26
22 21 19 20 25 21 21 19 18 19 20 20 22 26 25 24 23 24 24 27 31 35 39 43 46 51 57 63 70 75 68 56 50 45 39 35 32 31 28 27 22 22 24 26
24 25 24 23 25 21 25 22 19 20 21 23 23 27 21 21 22 23 25 29 33 37 40 44 49 55 61 69 74 70 62 55 47 39 33 30 28 27 24 21 22 25 26 24
Wind_Direction
296 292 284 279 274 267 254 244 235 232 232 232 231 231 231 229 231 233 234 234 236 237 241 250 251 259 272 284 284 289 286 281 282 287 284 276 280 276 273 283 289 290 289 288
309 290 285 281 276 265 255 248 232 228 227 227 225 228 229 226 227 231 233 234 237 239 246 251 268 273 275 276 285 287 283 281 280 283 281 281 280 275 276 288 290 289 288 288
309 300 293 284 275 266 260 243 227 224 226 225 222 225 226 226 225 226 231 233 234 238 245 254 256 265 267 271 280 279 286 284 281 283 282 281 283 279 286 287 286 287 289 289
319 316 304 297 281 264 249 231 219 212 210 222 222 225 226 225 224 226 229 233 237 240 243 250 255 254 274 269 273 274 276 278 280 282 284 287 288 288 288 289 291 291 291 291
330 331 320 325 299 275 191 188 182 191 207 194 219 218 227 224 224 226 229 231 235 240 242 248 250 258 260 267 271 274 274 276 282 285 287 288 289 289 291 292 292 292 291 291
343 351 355 360 9 148 168 153 166 187 198 214 219 215 219 223 224 226 231 234 237 240 243 245 248 253 258 262 267 270 272 278 281 285 288 291 291 291 293 292 292 292 290 287
352 4 8 28 56 143 154 164 184 184 197 211 209 208 215 224 223 222 226 230 234 239 242 245 249 254 257 260 262 267 273 277 283 287 290 290 292 292 291 291 290 289 288 289
20 16 25 56 84 147 162 170 171 181 218 195 195 206 193 203 214 217 222 226 230 234 239 242 246 249 252 258 264 269 275 281 284 288 290 290 289 289 290 290 288 288 289 291
12 1 17 62 101 162 185 181 169 178 189 195 198 193 187 198 199 204 209 214 220 226 231 235 242 250 256 260 266 273 278 283 286 287 287 287 289 290 288 289 291 293 293 293
7 9 7 54 125 178 214 222 198 131 156 152 162 168 181 193 199 208 211 217 221 226 236 246 248 251 258 264 271 276 280 282 284 284 286 287 287 288 290 292 294 294 293 293
9 13 14 69 67 224 219 229 153 153 142 143 142 168 180 191 197 208 217 225 233 242 249 251 254 259 262 269 274 277 280 282 282 285 287 288 289 290 292 293 293 294 296 296
15 18 38 35 54 123 211 281 253 184 172 161 167 170 183 194 207 219 227 235 241 247 253 257 260 263 269 273 277 279 280 282 287 288 288 288 291 292 293 295 296 296 297 297
8 17 24 30 62 46 250 198 216 232 236 276 220 232 230 214 212 220 228 236 244 252 258 263 266 269 273 277 277 279 285 287 286 287 290 291 293 295 296 297 298 299 299 298
358 13 31 29 40 49 53 207 214 211 229 254 206 192 193 210 215 223 237 247 253 259 261 264 269 272 272 275 281 285 284 286 289 291 293 295 297 298 298 299 299 299 299 298
354 2 3 10 44 47 57 74 205 227 223 211 188 201 215 219 227 238 244 248 254 259 263 265 268 273 279 282 283 284 289 292 294 296 298 299 298 298 299 299 300 300 301 300
344 351 353 356 23 51 53 71 73 102 143 198 213 227 231 237 240 247 252 255 259 262 266 273 278 281 282 282 288 292 295 296 297 298 297 297 299 300 300 302 303 304 302 304
332 340 338 346 299 37 30 31 65 218 266 259 259 263 262 258 257 260 262 265 271 276 279 280 282 282 287 291 294 296 296 297 296 298 300 301 302 303 304 304 305 304 307 306
316 327 324 318 304 217 261 252 282 284 288 286 278 274 272 272 274 274 275 276 277 280 283 283 284 290 294 295 296 296 297 300 301 302 303 303 304 305 307 306 306 308 307 308
307 311 305 290 264 265 261 263 268 272 277 277 276 276 275 275 275 277 279 281 282 282 282 289 294 296 296 297 299 301 301 302 303 304 304 305 307 308 307 307 308 309 310 308
300 292 284 278 263 263 269 278 285 286 281 276 274 273 272 276 283 282 280 279 280 285 293 297 297 297 300 301 301 302 304 304 305 305 306 308 309 307 307 309 310 311 311 309
296 284 271 267 265 266 271 284 290 289 285 279 276 278 281 288 293 290 282 282 288 296 297 296 299 302 302 302 304 305 306 307 307 308 309 309 308 307 310 310 311 311 310 307
282 279 267 263 261 267 275 279 287 294 292 287 286 286 288 290 295 294 288 292 295 294 297 302 303 303 305 307 309 309 310 310 310 310 310 309 306 309 309 308 313 312 308 304
269 276 266 259 260 262 268 276 283 288 290 295 300 297 294 293 297 296 293 293 294 301 305 305 307 309 312 313 313 312 312 311 311 312 310 307 306 308 309 308 313 310 304 307
259 262 267 258 260 257 261 267 275 283 286 291 304 307 297 292 294 292 291 296 304 307 308 311 313 315 317 316 315 314 313 313 314 311 307 306 306 308 309 310 310 307 306 309
252 253 258 255 255 260 260 263 270 275 286 292 294 306 294 287 286 289 296 304 308 311 314 316 318 320 320 319 317 316 315 316 313 309 307 304 305 307 307 307 307 307 310 316
254 249 252 259 266 265 262 262 268 276 283 295 297 305 287 280 285 295 302 308 312 316 317 321 323 323 322 322 319 319 318 316 312 308 304 302 303 307 306 306 309 314 319 324
Height
5734 5729 5722 5720 5717 5715 5714 5717 5724 5733 5742 5750 5760 5767 5775 5783 5789 5794 5801 5805 5809 5814 5814 5816 5807 5810 5814 5815 5817 5818 5817 5816 5814 5813 5811 5811 5811 5810 5808 5807 5805 5803 5801 5799
5724 5718 5710 5705 5702 5699 5700 5702 5709 5720 5727 5736 5748 5757 5764 5773 5780 5786 5792 5798 5802 5803 5805 5810 5807 5808 5809 5809 5810 5809 5812 5809 5809 5808 5807 5806 5804 5802 5801 5800 5798 5795 5793 5790
5712 5707 5700 5694 5691 5688 5687 5688 5697 5710 5719 5728 5739 5746 5755 5764 5771 5777 5782 5788 5793 5798 5800 5801 5803 5804 5803 5802 5803 5804 5804 5803 5803 5802 5800 5799 5797 5795 5794 5792 5789 5787 5784 5782
5705 5697 5690 5685 5683 5679 5679 5684 5692 5703 5716 5724 5731 5741 5748 5756 5763 5769 5774 5780 5786 5791 5793 5795 5796 5797 5796 5797 5798 5799 5799 5798 5796 5795 5793 5790 5789 5787 5785 5782 5779 5777 5775 5772
5700 5693 5685 5682 5677 5676 5677 5680 5689 5701 5712 5720 5724 5735 5744 5749 5757 5763 5769 5773 5779 5784 5787 5789 5790 5791 5792 5793 5792 5791 5792 5790 5788 5786 5784 5783 5781 5778 5775 5773 5771 5768 5764 5761
5695 5691 5685 5681 5679 5678 5678 5684 5694 5701 5710 5715 5722 5731 5738 5745 5752 5758 5763 5768 5772 5777 5780 5782 5784 5785 5786 5787 5786 5784 5783 5782 5780 5778 5776 5774 5772 5769 5767 5764 5760 5757 5753 5750
5694 5691 5687 5684 5683 5683 5684 5688 5693 5701 5705 5715 5719 5726 5734 5741 5747 5752 5757 5762 5766 5770 5772 5774 5776 5777 5778 5779 5778 5777 5777 5775 5773 5770 5768 5766 5764 5761 5758 5754 5750 5746 5743 5740
5697 5693 5691 5689 5688 5689 5690 5693 5698 5702 5706 5711 5718 5724 5733 5737 5742 5747 5752 5756 5760 5763 5765 5768 5770 5771 5771 5772 5771 5770 5769 5768 5765 5763 5760 5758 5755 5752 5748 5744 5740 5736 5732 5728
5704 5699 5695 5693 5693 5695 5696 5697 5701 5704 5709 5714 5719 5725 5730 5734 5738 5743 5747 5750 5753 5756 5759 5761 5763 5764 5765 5765 5764 5763 5762 5760 5758 5755 5752 5749 5746 5741 5737 5734 5730 5725 5720 5714
5708 5701 5699 5698 5697 5698 5697 5699 5704 5706 5711 5716 5719 5724 5728 5732 5735 5739 5742 5745 5749 5752 5754 5756 5757 5758 5758 5758 5757 5756 5755 5753 5750 5747 5744 5740 5735 5731 5727 5723 5717 5711 5705 5698
5711 5707 5700 5701 5701 5702 5704 5703 5705 5707 5711 5715 5720 5724 5726 5730 5733 5736 5740 5743 5745 5747 5749 5750 5752 5752 5752 5751 5750 5749 5748 5745 5742 5738 5734 5730 5726 5721 5715 5709 5702 5695 5688 5680
5716 5712 5706 5705 5705 5705 5706 5707 5708 5710 5714 5716 5720 5723 5724 5728 5731 5733 5736 5739 5741 5743 5744 5745 5746 5746 5746 5745 5744 5742 5739 5736 5733 5728 5724 5719 5714 5708 5702 5694 5686 5678 5670 5662
5719 5715 5712 5709 5708 5707 5707 5709 5711 5712 5714 5716 5719 5722 5722 5725 5727 5730 5732 5735 5737 5739 5739 5740 5740 5740 5739 5738 5736 5734 5731 5727 5722 5718 5713 5708 5701 5694 5686 5678 5669 5661 5652 5643
5721 5719 5716 5714 5712 5710 5707 5709 5712 5713 5716 5717 5718 5720 5722 5724 5726 5728 5730 5732 5733 5734 5734 5734 5734 5734 5732 5731 5728 5725 5721 5718 5713 5708 5702 5695 5687 5678 5670 5661 5653 5644 5635 5624
5722 5720 5718 5716 5714 5712 5711 5711 5712 5714 5715 5716 5718 5718 5720 5723 5724 5726 5727 5728 5728 5729 5729 5729 5728 5727 5725 5722 5719 5716 5712 5707 5702 5695 5688 5680 5671 5663 5655 5646 5636 5626 5614 5603
5722 5720 5719 5718 5716 5714 5713 5712 5713 5713 5714 5716 5716 5717 5719 5720 5721 5723 5723 5724 5724 5724 5724 5723 5722 5720 5717 5714 5711 5707 5702 5696 5689 5681 5674 5666 5657 5648 5638 5627 5616 5605 5592 5580
5721 5720 5718 5718 5717 5715 5715 5714 5714 5714 5715 5716 5716 5717 5717 5718 5719 5719 5720 5720 5719 5719 5718 5716 5714 5712 5709 5706 5702 5696 5690 5683 5676 5668 5659 5650 5641 5630 5620 5608 5596 5584 5573 5563
5720 5719 5718 5717 5716 5716 5715 5714 5714 5714 5714 5714 5715 5715 5715 5715 5716 5716 5715 5714 5713 5712 5711 5709 5707 5705 5701 5697 5691 5685 5678 5670 5662 5653 5644 5634 5623 5612 5600 5589 5577 5568 5559 5550
5717 5717 5717 5717 5716 5715 5714 5714 5713 5712 5713 5712 5712 5712 5712 5711 5711 5711 5710 5709 5708 5706 5704 5703 5700 5696 5692 5686 5680 5672 5664 5656 5647 5638 5627 5616 5605 5593 5582 5572 5563 5555 5547 5539
5714 5714 5715 5715 5714 5714 5713 5712 5711 5711 5710 5709 5708 5708 5707 5707 5707 5706 5704 5703 5702 5700 5699 5696 5692 5687 5682 5675 5668 5659 5651 5642 5632 5621 5610 5598 5587 5576 5567 5559 5551 5543 5536 5530
5710 5710 5711 5711 5711 5711 5711 5710 5710 5710 5710 5706 5705 5704 5704 5703 5702 5701 5699 5697 5696 5694 5692 5688 5684 5678 5671 5664 5656 5647 5637 5626 5615 5603 5592 5581 5571 5562 5555 5548 5541 5534 5528 5523
5706 5706 5706 5706 5706 5707 5708 5707 5707 5706 5704 5704 5703 5702 5701 5699 5697 5695 5694 5692 5690 5688 5684 5680 5675 5668 5661 5653 5644 5633 5622 5609 5597 5584 5574 5565 5558 5551 5545 5538 5531 5525 5521 5518
5701 5702 5702 5702 5701 5701 5702 5702 5702 5701 5700 5700 5699 5698 5696 5694 5692 5690 5688 5686 5683 5681 5677 5671 5665 5657 5649 5640 5629 5617 5604 5591 5577 5567 5559 5552 5546 5541 5535 5529 5523 5519 5516 5512
5694 5695 5696 5695 5695 5696 5695 5696 5697 5696 5696 5695 5694 5692 5690 5688 5687 5684 5682 5679 5677 5673 5668 5662 5655 5647 5638 5626 5614 5601 5585 5571 5561 5553 5546 5541 5536 5531 5526 5521 5516 5514 5510 5506
5688 5688 5688 5688 5686 5690 5690 5690 5690 5690 5690 5689 5688 5686 5684 5682 5681 5678 5676 5673 5670 5665 5659 5652 5645 5636 5626 5613 5599 5583 5567 5556 5548 5541 5535 5531 5527 5523 5518 5514 5511 5508 5504 5500
5680 5680 5680 5681 5680 5683 5683 5684 5684 5684 5684 5683 5682 5680 5677 5676 5675 5673 5671 5667 5662 5657 5651 5644 5635 5625 5614 5600 5583 5566 5552 5542 5534 5529 5525 5522 5519 5515 5512 5509 5505 5501 5498 5494